User: anonymous
Location: Caltech
(34.1382°N, 118.1253°W)
Time: 11:41:00
(UTC-07:00)
Language:

USA 129 - Orbit

View from above orbital plane
View from above orbital plane
View from above satellite
View from above satellite

Ground track
Ground track

The orbit data is extracted from the following two-line orbital elements,

1 24680U 96072A   14106.79598551 0.00061000  00000-0  29563-3 0    03
2 24680  97.5339 163.6062 0319149 261.6519  98.3479 15.35003552    08
Epoch (UTC): 16 April 2014 19:06:13
Eccentricity: 0.0319149
inclination: 97.5339°
perigee height: 242 km
apogee height: 679 km
right ascension of ascending node: 163.6062°
argument of perigee: 261.6519°
revolutions per day: 15.35003552
mean anomaly at epoch: 98.3479°
orbit number at epoch: 0

The dashed part of the orbit path shows where the satellite is in the earth's shadow,  

DLR